TimeCDT,TemperatureF,Dew PointF,Humidity,Sea Level PressureIn,VisibilityMPH,Wind Direction,Wind SpeedMPH,Gust SpeedMPH,PrecipitationIn,Events,Conditions,WindDirDegrees,DateUTC
12:53 AM,73.9,70.0,87,29.96,10.0,ESE,6.9,-,N/A,,Clear,110,2012-10-04 05:53:00
1:53 AM,73.0,70.0,90,29.96,10.0,ESE,6.9,-,N/A,,Clear,120,2012-10-04 06:53:00
2:53 AM,72.0,70.0,93,29.96,9.0,ESE,6.9,-,N/A,,Clear,110,2012-10-04 07:53:00
3:53 AM,71.1,69.1,93,29.95,7.0,East,5.8,-,N/A,,Clear,90,2012-10-04 08:53:00
4:53 AM,71.1,69.1,93,29.94,6.0,ESE,6.9,-,N/A,,Clear,110,2012-10-04 09:53:00
5:53 AM,70.0,69.1,97,29.95,5.0,ESE,6.9,-,N/A,,Clear,110,2012-10-04 10:53:00
6:53 AM,69.1,69.1,100,29.96,5.0,SE,5.8,-,N/A,,Clear,130,2012-10-04 11:53:00
7:53 AM,70.0,69.1,97,29.99,3.0,East,4.6,-,N/A,,Clear,80,2012-10-04 12:53:00
8:53 AM,73.0,70.0,90,30.00,7.0,East,5.8,-,N/A,,Clear,100,2012-10-04 13:53:00
9:53 AM,77.0,70.0,79,30.01,10.0,SE,10.4,-,N/A,,Clear,140,2012-10-04 14:53:00
10:53 AM,81.0,68.0,65,30.02,10.0,SE,8.1,-,N/A,,Clear,140,2012-10-04 15:53:00
11:53 AM,84.0,66.9,56,30.03,10.0,SE,6.9,-,N/A,,Clear,130,2012-10-04 16:53:00
12:53 PM,89.1,64.9,45,30.01,10.0,SSE,8.1,-,N/A,,Clear,150,2012-10-04 17:53:00
1:53 PM,91.9,63.0,38,29.99,10.0,SE,10.4,16.1,N/A,,Clear,140,2012-10-04 18:53:00
2:53 PM,95.0,61.0,32,29.97,10.0,SSE,10.4,-,N/A,,Clear,150,2012-10-04 19:53:00
3:53 PM,96.1,57.9,28,29.95,10.0,ESE,8.1,-,N/A,,Clear,110,2012-10-04 20:53:00
4:53 PM,96.8,55.4,25,29.97,10.0,SE,10.4,-,N/A,,Clear,140,2012-10-04 21:53:00
5:53 PM,97.0,48.9,19,29.94,10.0,SSE,11.5,17.3,N/A,,Clear,150,2012-10-04 22:53:00
6:53 PM,93.0,55.9,29,29.95,10.0,SE,9.2,18.4,N/A,,Clear,130,2012-10-04 23:53:00
7:53 PM,87.1,57.9,37,29.97,10.0,East,9.2,-,N/A,,Clear,100,2012-10-05 00:53:00
8:53 PM,84.0,71.1,65,30.00,10.0,SE,19.6,27.6,N/A,,Clear,130,2012-10-05 01:53:00
9:53 PM,81.0,71.1,72,30.02,10.0,SE,13.8,-,N/A,,Clear,130,2012-10-05 02:53:00
10:53 PM,79.0,71.1,77,30.03,10.0,SE,9.2,-,N/A,,Clear,130,2012-10-05 03:53:00
11:53 PM,77.0,70.0,79,30.02,10.0,SE,9.2,-,N/A,,Clear,130,2012-10-05 04:53:00